Kirksville, MO

8:28 AM CST on December 04, 2016 (GMT -0600)
Kirksville Regional

Weather History for KIRK - October, 2015

Change the Weather History Date:

Monday, October 5, 2015

  Actual Average Record
Temperature  
Mean Temperature 58 °F 57 °F  
Max Temperature 62 °F 68 °F 89 °F (1938)
Min Temperature 53 °F 46 °F 28 °F (1980)
Degree Days  
Heating Degree Days 7 9  
Month to date heating degree days 55 42  
Since 1 July heating degree days 108 149  
Cooling Degree Days 0 1  
Month to date cooling degree days 0 5  
Year to date cooling degree days 1084 932  
Growing Degree Days 7 (Base 50)    
Moisture  
Dew Point 52 °F    
Average Humidity 86    
Maximum Humidity 93    
Minimum Humidity 78    
Precipitation  
Precipitation 0.00 in 0.10 in 2.18 in (1955)
Month to date precipitation 0.00 0.58  
Year to date precipitation 32.83 32.10  
Sea Level Pressure  
Sea Level Pressure 30.18 in    
Wind  
Wind Speed 4 mph (NNE)    
Max Wind Speed 9 mph    
Max Gust Speed 11 mph    
Visibility 6 miles    
Events      
T = Trace of Precipitation, MM = Missing Value Source: NWS Daily Summary

Daily Weather History Graph

Daily Weather History Graph

Search for Another Location

Airport or City:

Trip Planner

Search our weather history database for the weather conditions in past years. The results will help you decide how hot, cold, wet, or windy it might be!

Date:

Astronomy

Oct. 05, 2015 Rise Set
Actual Time 7:10 AM CDT 6:46 PM CDT
Civil Twilight 6:43 AM CDT 7:13 PM CDT
Nautical Twilight 6:11 AM CDT 7:44 PM CDT
Astronomical Twilight 5:40 AM CDT 8:16 PM CDT
Moon 12:20 AM CDT (10/5) 2:48 PM CDT (10/5)
Length of Visible Light 12h 30m
Length of Day
11h 36m
Last Quarter, 42% of the Moon is Illuminated
Oct 5
Last Quarter
Oct 12
New
Oct 20
First Quarter
Oct 27
Full
Nov 3
Last Quarter

Hourly Weather History & Observations

Time (CDT) Temp. Dew Point Humidity Pressure Visibility Wind Dir Wind Speed Gust Speed Precip Events Conditions
12:10 AM 54.0 °F 50.0 °F 86% 30.18 in 9.0 mi ENE 6.9 mph - N/A   Overcast
12:25 AM 54.0 °F 50.0 °F 86% 30.17 in 5.0 mi ENE 6.9 mph - N/A   Overcast
12:55 AM 53.1 °F 50.0 °F 89% 30.18 in 3.0 mi ENE 5.8 mph - N/A   Overcast
1:10 AM 53.1 °F 51.1 °F 93% 30.16 in 4.0 mi NE 4.6 mph - N/A   Overcast
1:23 AM 53.1 °F 51.1 °F 93% 30.17 in 5.0 mi Calm Calm - N/A   Overcast
1:26 AM 53.1 °F 51.1 °F 93% 30.17 in 5.0 mi ENE 3.5 mph - N/A   Overcast
1:55 AM 53.1 °F 50.0 °F 89% 30.18 in 6.0 mi NE 3.5 mph - N/A   Overcast
2:55 AM 53.1 °F 51.1 °F 93% 30.19 in 6.0 mi Calm Calm - N/A   Overcast
3:18 AM 53.1 °F 51.1 °F 93% 30.17 in 7.0 mi North 4.6 mph - N/A   Overcast
3:39 AM 53.1 °F 51.1 °F 93% 30.17 in 4.0 mi North 5.8 mph - N/A   Overcast
3:48 AM 53.1 °F 51.1 °F 93% 30.17 in 2.0 mi North 4.6 mph - N/A   Overcast
3:55 AM 53.1 °F 51.1 °F 93% 30.19 in 2.0 mi NNW 3.5 mph - N/A   Overcast
4:07 AM 53.1 °F 51.1 °F 93% 30.17 in 1.8 mi NNE 3.5 mph - N/A   Overcast
4:17 AM 53.1 °F 51.1 °F 93% 30.17 in 2.0 mi NNE 4.6 mph - N/A   Overcast
4:51 AM 53.6 °F 51.8 °F 94% 30.17 in 1.5 mi North 5.8 mph - N/A   Overcast
4:55 AM 53.1 °F 51.1 °F 93% 30.19 in 1.5 mi North 5.8 mph - N/A   Overcast
5:09 AM 53.1 °F 51.1 °F 93% 30.18 in 1.5 mi North 4.6 mph - N/A   Overcast
5:28 AM 53.1 °F 51.1 °F 93% 30.18 in 2.0 mi North 4.6 mph - N/A   Overcast
5:55 AM 53.1 °F 52.0 °F 96% 30.19 in 2.0 mi North 4.6 mph - N/A   Overcast
6:42 AM 54.0 °F 52.0 °F 93% 30.19 in 3.0 mi NNE 5.8 mph - N/A   Overcast
6:55 AM 54.0 °F 51.1 °F 90% 30.20 in 4.0 mi NNE 6.9 mph - N/A   Overcast
7:55 AM 54.0 °F 52.0 °F 93% 30.21 in 4.0 mi NNE 6.9 mph - N/A   Overcast
8:17 AM 55.0 °F 52.0 °F 89% 30.20 in 4.0 mi NNE 5.8 mph - N/A   Overcast
8:55 AM 55.0 °F 52.0 °F 89% 30.22 in 5.0 mi NE 6.9 mph - N/A   Overcast
9:17 AM 55.9 °F 52.0 °F 87% 30.20 in 7.0 mi NE 6.9 mph - N/A   Overcast
9:55 AM 55.9 °F 52.0 °F 87% 30.22 in 8.0 mi NNE 4.6 mph - N/A   Overcast
10:55 AM 57.0 °F 53.1 °F 87% 30.22 in 9.0 mi NNE 6.9 mph - N/A   Overcast
11:55 AM 57.0 °F 53.1 °F 87% 30.22 in 8.0 mi North 5.8 mph - N/A   Overcast
12:55 PM 57.9 °F 53.1 °F 84% 30.22 in 4.0 mi NE 4.6 mph - N/A   Haze
1:27 PM 59.0 °F 53.1 °F 81% 30.20 in 7.0 mi NNE 3.5 mph - N/A   Overcast
1:55 PM 60.1 °F 53.1 °F 78% 30.19 in 10.0 mi North 4.6 mph - N/A   Overcast
2:55 PM 61.0 °F 54.0 °F 78% 30.17 in 10.0 mi North 4.6 mph - N/A   Overcast
3:55 PM 61.0 °F 54.0 °F 78% 30.17 in 10.0 mi North 4.6 mph - N/A   Overcast
4:55 PM 61.0 °F 54.0 °F 78% 30.17 in 10.0 mi North 3.5 mph - N/A   Overcast
5:38 PM 61.0 °F 54.0 °F 78% 30.16 in 10.0 mi North 5.8 mph - N/A   Overcast
5:55 PM 61.0 °F 54.0 °F 78% 30.17 in 10.0 mi North 3.5 mph - N/A   Overcast
6:55 PM 60.1 °F 54.0 °F 80% 30.18 in 10.0 mi NE 3.5 mph - N/A   Overcast
7:55 PM 59.0 °F 55.0 °F 87% 30.18 in 9.0 mi Calm Calm - N/A   Overcast
8:55 PM 59.0 °F 55.0 °F 87% 30.18 in 10.0 mi Calm Calm - N/A   Overcast
9:53 PM 57.2 °F 53.6 °F 88% 30.17 in 10.0 mi Calm Calm - N/A   Scattered Clouds
9:55 PM 57.9 °F 54.0 °F 87% 30.18 in 10.0 mi Calm Calm - N/A   Mostly Cloudy
10:55 PM 57.9 °F 55.0 °F 90% 30.19 in 10.0 mi Calm Calm - N/A   Overcast
11:55 PM 59.0 °F 54.0 °F 83% 30.18 in 10.0 mi NNE 3.5 mph - N/A   Overcast